RYE06 LEMD-LIPZ

Flight info

Callsign RYE06
Flight time N/A
Altitude 40000
Route PINAR N870 BCN M985 LUMAS DCT NEVIX DCT ODIXU DCT ADITA DCT RAPED DCT PIGOS DCT EKSID DCT NOSTA DCT NOPMU DCT BOA DCT SUKOM Q125 NIMUM Z43 OTGIG
Aircraft BBJ2/M-SDE2E3FGHIRWXY/LB1

Departure

Time 2026-05-06 21:37
Airport Adolfo Suárez Madrid–Barajas Airport (LEMD)

Arrival

Time N/A
Airport Venice Marco Polo Airport (LIPZ)
Time Latitude Longitude Altitude Speed Heading
2026-05-06 21:14 40.49246 -3.56369 1979 ft 0 kts 271°
2026-05-06 21:33 40.49246 -3.56406 1979 ft 8 kts 271°
2026-05-06 21:34 40.49216 -3.56472 1980 ft 10 kts 207°
2026-05-06 21:34 40.49129 -3.56481 1980 ft 15 kts 182°
2026-05-06 21:34 40.49011 -3.56488 1979 ft 18 kts 182°
2026-05-06 21:34 40.48892 -3.56496 1982 ft 17 kts 191°
2026-05-06 21:35 40.48861 -3.56630 1979 ft 17 kts 272°
2026-05-06 21:35 40.48863 -3.56783 1979 ft 17 kts 269°
2026-05-06 21:35 40.48861 -3.56939 1979 ft 18 kts 269°
2026-05-06 21:35 40.48859 -3.57117 1979 ft 21 kts 269°
2026-05-06 21:36 40.48948 -3.57237 1979 ft 22 kts 353°
2026-05-06 21:36 40.49072 -3.57332 1979 ft 22 kts 314°
2026-05-06 21:36 40.49187 -3.57455 1981 ft 21 kts 344°
2026-05-06 21:36 40.49333 -3.57464 1979 ft 21 kts 360°
2026-05-06 21:37 40.49482 -3.57465 1981 ft 31 kts 360°
2026-05-06 21:37 40.49970 -3.57468 1980 ft 108 kts 360°
2026-05-06 21:37 40.50944 -3.57476 2054 ft 163 kts 359°
2026-05-06 21:37 40.52074 -3.57488 2838 ft 164 kts 359°
2026-05-06 21:38 40.53213 -3.57521 3694 ft 165 kts 359°
2026-05-06 21:38 40.54455 -3.57537 4031 ft 196 kts
2026-05-06 21:38 40.55890 -3.57263 4264 ft 221 kts 15°
2026-05-06 21:38 40.57420 -3.56670 4716 ft 235 kts 17°
2026-05-06 21:39 40.59000 -3.56042 5453 ft 239 kts 17°
2026-05-06 21:39 40.60599 -3.55424 6284 ft 241 kts 17°
2026-05-06 21:39 40.62224 -3.54807 7079 ft 245 kts 16°
2026-05-06 21:39 40.63880 -3.54209 7871 ft 249 kts 11°
2026-05-06 21:40 40.65621 -3.53960 8671 ft 254 kts
2026-05-06 21:40 40.67397 -3.53836 9504 ft 258 kts
2026-05-06 21:40 40.69177 -3.53687 10302 ft 262 kts
2026-05-06 21:40 40.70850 -3.52654 10993 ft 273 kts 43°
2026-05-06 21:41 40.72101 -3.50623 11251 ft 300 kts 56°
2026-05-06 21:41 40.73314 -3.48239 11546 ft 324 kts 57°
2026-05-06 21:41 40.74555 -3.45750 12238 ft 333 kts 57°
2026-05-06 21:41 40.75860 -3.43157 13085 ft 338 kts 57°